AAL1322 KDEN-KDFW

Flight info

Callsign AAL1322
Flight time N/A
Altitude 35000
Route SLEEK2 SLEEK EZEEE MDANO JOVEM6
Aircraft B738/M-SDE2E3FGHIRWXY/LB1

Departure

Time N/A
Airport Denver International Airport (KDEN)

Arrival

Time 2026-05-06 02:41
Airport Dallas Fort Worth International Airport (KDFW)
Time Latitude Longitude Altitude Speed Heading
2026-05-06 02:07 34.14189 -99.18658 34873 ft 506 kts 133°
2026-05-06 02:09 34.10740 -99.11496 34869 ft 505 kts 132°
2026-05-06 02:09 34.07199 -99.04144 34396 ft 512 kts 132°
2026-05-06 02:10 34.05415 -99.00436 34015 ft 508 kts 132°
2026-05-06 02:10 34.03651 -98.96765 33569 ft 505 kts 132°
2026-05-06 02:10 34.01897 -98.93121 33136 ft 502 kts 132°
2026-05-06 02:10 34.00140 -98.89480 32714 ft 499 kts 131°
2026-05-06 02:11 33.98425 -98.85930 32319 ft 495 kts 131°
2026-05-06 02:11 33.96692 -98.82351 31926 ft 492 kts 131°
2026-05-06 02:11 33.94974 -98.78806 31536 ft 489 kts 131°
2026-05-06 02:11 33.93316 -98.75392 31173 ft 486 kts 131°
2026-05-06 02:12 33.91598 -98.71854 30791 ft 483 kts 131°
2026-05-06 02:12 33.89908 -98.68377 30367 ft 481 kts 131°
2026-05-06 02:12 33.88218 -98.64907 30008 ft 478 kts 131°
2026-05-06 02:12 33.86544 -98.61470 29602 ft 475 kts 131°
2026-05-06 02:13 33.84876 -98.58052 29180 ft 472 kts 131°
2026-05-06 02:13 33.83234 -98.54688 28759 ft 470 kts 131°
2026-05-06 02:13 33.81587 -98.51319 28348 ft 467 kts 131°
2026-05-06 02:13 33.79946 -98.47968 27938 ft 464 kts 131°
2026-05-06 02:14 33.78310 -98.44627 27539 ft 461 kts 130°
2026-05-06 02:14 33.76686 -98.41317 27059 ft 459 kts 130°
2026-05-06 02:14 33.75067 -98.38017 26656 ft 457 kts 130°
2026-05-06 02:14 33.73457 -98.34740 26254 ft 455 kts 130°
2026-05-06 02:15 33.71852 -98.31475 25840 ft 452 kts 130°
2026-05-06 02:15 33.70255 -98.28230 25455 ft 451 kts 130°
2026-05-06 02:15 33.68663 -98.24997 25055 ft 449 kts 130°
2026-05-06 02:15 33.67110 -98.21841 24621 ft 441 kts 130°
2026-05-06 02:16 33.65559 -98.18692 24268 ft 436 kts 130°
2026-05-06 02:16 33.64002 -98.15548 23910 ft 446 kts 130°
2026-05-06 02:16 33.62360 -98.12269 23454 ft 467 kts 129°
2026-05-06 02:16 33.60681 -98.08905 22923 ft 471 kts 129°
2026-05-06 02:17 33.59016 -98.05542 22439 ft 468 kts 129°
2026-05-06 02:17 33.57363 -98.02199 21977 ft 462 kts 129°
2026-05-06 02:17 33.55733 -97.98912 21542 ft 457 kts 129°
2026-05-06 02:17 33.54107 -97.95646 21093 ft 453 kts 129°
2026-05-06 02:18 33.52503 -97.92433 20674 ft 449 kts 129°
2026-05-06 02:18 33.50902 -97.89228 20263 ft 446 kts 128°
2026-05-06 02:18 33.49318 -97.86052 19857 ft 443 kts 128°
2026-05-06 02:18 33.47761 -97.82927 19450 ft 441 kts 128°
2026-05-06 02:19 33.46194 -97.79785 19038 ft 439 kts 128°
2026-05-06 02:19 33.44629 -97.76648 18613 ft 438 kts 128°
2026-05-06 02:19 33.43081 -97.73546 18183 ft 430 kts 128°
2026-05-06 02:19 33.41563 -97.70500 17815 ft 419 kts 128°
2026-05-06 02:20 33.38592 -97.64593 17132 ft 412 kts 130°
2026-05-06 02:20 33.36807 -97.62019 16733 ft 395 kts 144°
2026-05-06 02:20 33.34834 -97.59792 16383 ft 385 kts 146°
2026-05-06 02:21 33.32894 -97.57629 16003 ft 376 kts 145°
2026-05-06 02:21 33.31054 -97.55522 15655 ft 367 kts 145°
2026-05-06 02:21 33.29227 -97.53389 15316 ft 359 kts 144°
2026-05-06 02:21 33.27475 -97.51333 14996 ft 357 kts 144°
2026-05-06 02:22 33.25697 -97.49253 14637 ft 360 kts 144°
2026-05-06 02:22 33.23898 -97.47149 14311 ft 362 kts 144°
2026-05-06 02:22 33.22100 -97.45044 13940 ft 363 kts 144°
2026-05-06 02:22 33.20318 -97.42953 13593 ft 355 kts 144°
2026-05-06 02:23 33.18581 -97.40914 13230 ft 347 kts 144°
2026-05-06 02:23 33.16870 -97.38911 12892 ft 341 kts 144°
2026-05-06 02:23 33.15174 -97.36933 12591 ft 343 kts 143°
2026-05-06 02:23 33.13457 -97.34934 12266 ft 345 kts 143°
2026-05-06 02:24 33.11770 -97.32961 12046 ft 332 kts 143°
2026-05-06 02:24 33.10188 -97.31100 12029 ft 314 kts 144°
2026-05-06 02:24 33.08641 -97.29293 12024 ft 311 kts 144°
2026-05-06 02:24 33.07098 -97.27499 12030 ft 311 kts 144°
2026-05-06 02:25 33.05549 -97.25699 12031 ft 309 kts 144°
2026-05-06 02:25 33.04047 -97.23943 12028 ft 295 kts 144°
2026-05-06 02:25 33.02624 -97.22277 12022 ft 280 kts 145°
2026-05-06 02:25 33.01256 -97.20684 12037 ft 275 kts 145°
2026-05-06 02:26 32.99872 -97.19082 12054 ft 278 kts 145°
2026-05-06 02:26 32.98422 -97.17593 12030 ft 268 kts 162°
2026-05-06 02:26 32.96731 -97.16972 11860 ft 250 kts 183°
2026-05-06 02:26 32.95018 -97.16819 11545 ft 244 kts 187°
2026-05-06 02:27 32.93361 -97.16746 11296 ft 239 kts 187°
2026-05-06 02:27 32.91683 -97.16679 11076 ft 238 kts 187°
2026-05-06 02:27 32.90041 -97.16609 10864 ft 240 kts 187°
2026-05-06 02:27 32.88361 -97.16532 10635 ft 244 kts 186°
2026-05-06 02:28 32.86654 -97.16446 10397 ft 247 kts 186°
2026-05-06 02:28 32.84946 -97.16354 10146 ft 245 kts 186°
2026-05-06 02:28 32.83253 -97.16261 9902 ft 242 kts 186°
2026-05-06 02:28 32.81582 -97.16168 9656 ft 239 kts 186°
2026-05-06 02:29 32.79920 -97.16078 9446 ft 239 kts 186°
2026-05-06 02:29 32.78267 -97.16048 9204 ft 237 kts 187°
2026-05-06 02:29 32.76628 -97.16054 8938 ft 235 kts 188°
2026-05-06 02:29 32.74996 -97.16062 8714 ft 235 kts 187°
2026-05-06 02:30 32.73354 -97.16069 8481 ft 236 kts 187°
2026-05-06 02:30 32.71711 -97.16074 8247 ft 236 kts 186°
2026-05-06 02:30 32.70073 -97.16077 8023 ft 236 kts 186°
2026-05-06 02:30 32.68448 -97.16079 7786 ft 237 kts 185°
2026-05-06 02:31 32.66798 -97.16080 7554 ft 238 kts 185°
2026-05-06 02:31 32.65160 -97.16080 7348 ft 232 kts 184°
2026-05-06 02:31 32.63576 -97.16078 7116 ft 224 kts 184°
2026-05-06 02:31 32.62045 -97.16077 6875 ft 216 kts 184°
2026-05-06 02:32 32.60568 -97.16076 6655 ft 208 kts 184°
2026-05-06 02:32 32.59146 -97.16072 6450 ft 201 kts 180°
2026-05-06 02:32 32.57869 -97.15500 6287 ft 202 kts 137°
2026-05-06 02:32 32.57294 -97.13980 6183 ft 213 kts 92°
2026-05-06 02:33 32.57526 -97.12265 6083 ft 215 kts 78°
2026-05-06 02:33 32.57766 -97.11088 5848 ft 218 kts 78°
2026-05-06 02:33 32.58608 -97.07208 5356 ft 202 kts 71°
2026-05-06 02:34 32.59497 -97.05991 5167 ft 199 kts 24°
2026-05-06 02:34 32.60846 -97.05560 5055 ft 212 kts
2026-05-06 02:34 32.62354 -97.05513 4814 ft 219 kts 358°
2026-05-06 02:34 32.63870 -97.05530 4590 ft 217 kts 358°
2026-05-06 02:35 32.65356 -97.05556 4364 ft 211 kts 358°
2026-05-06 02:35 32.66803 -97.05569 4188 ft 206 kts 358°
2026-05-06 02:35 32.68183 -97.05573 3994 ft 195 kts 358°
2026-05-06 02:35 32.69512 -97.05573 3815 ft 190 kts 360°
2026-05-06 02:36 32.70827 -97.05570 3635 ft 188 kts
2026-05-06 02:36 32.72127 -97.05569 3445 ft 185 kts
2026-05-06 02:36 32.73389 -97.05563 3285 ft 177 kts
2026-05-06 02:36 32.74560 -97.05556 3117 ft 165 kts
2026-05-06 02:37 32.75685 -97.05549 2916 ft 159 kts
2026-05-06 02:37 32.76773 -97.05543 2756 ft 154 kts
2026-05-06 02:37 32.77829 -97.05538 2572 ft 151 kts
2026-05-06 02:37 32.78839 -97.05532 2380 ft 142 kts
2026-05-06 02:38 32.79791 -97.05526 2182 ft 134 kts
2026-05-06 02:38 32.80698 -97.05524 1989 ft 131 kts
2026-05-06 02:38 32.81620 -97.05519 1856 ft 133 kts
2026-05-06 02:38 32.82580 -97.05521 1770 ft 143 kts
2026-05-06 02:39 32.83560 -97.05498 1647 ft 140 kts
2026-05-06 02:39 32.84531 -97.05489 1410 ft 137 kts
2026-05-06 02:39 32.85473 -97.05483 1151 ft 132 kts 359°
2026-05-06 02:39 32.86381 -97.05489 929 ft 128 kts 357°
2026-05-06 02:40 32.87264 -97.05475 764 ft 127 kts 359°
2026-05-06 02:40 32.88170 -97.05483 638 ft 135 kts 359°
2026-05-06 02:40 32.89102 -97.05475 604 ft 133 kts
2026-05-06 02:40 32.89988 -97.05466 597 ft 107 kts
2026-05-06 02:41 32.90514 -97.05462 597 ft 46 kts 359°
2026-05-06 02:41 32.90753 -97.05464 597 ft 19 kts 359°
2026-05-06 02:41 32.90876 -97.05457 597 ft 17 kts 16°
2026-05-06 02:41 32.90912 -97.05368 597 ft 12 kts 90°